Temperature
17 19 19 20 20 20 20 19 19 19 19 18 18 18 18 18 18 17 17 16 15 15 14 14 13 13 13 13 13 12 12 12 11 11 11 11 11 11 11 11 11 12 12
18 18 19 19 19 19 19 19 19 19 19 18 18 17 17 17 17 16 15 15 14 14 14 13 13 13 13 13 13 12 12 12 11 11 10 10 11 11 11 11 11 12 12
17 17 18 18 19 19 19 19 18 18 18 18 17 17 16 16 15 15 15 14 14 13 13 13 13 13 13 13 13 13 12 12 12 11 10 10 10 11 11 11 11 11 11
16 16 17 17 17 17 17 17 17 17 17 16 16 16 15 14 14 14 14 13 13 13 13 13 13 12 12 12 13 13 12 12 12 12 11 11 10 10 10 11 11 11 10
15 15 16 16 16 16 16 16 16 16 15 15 15 14 14 13 13 13 13 13 12 12 12 12 12 12 12 12 12 12 12 12 12 12 11 11 11 10 10 10 11 11 11
15 15 15 15 15 15 15 15 15 15 14 14 14 14 13 13 13 13 13 12 12 12 12 11 11 11 11 11 11 11 11 11 11 11 11 11 11 11 10 10 11 11 12
15 15 15 15 15 15 14 14 14 13 13 13 13 13 12 12 12 12 11 11 11 11 11 11 11 11 11 10 10 10 10 11 10 10 10 10 11 11 11 11 11 11 11
15 15 15 14 14 13 13 13 13 12 12 12 12 12 11 11 11 10 10 10 10 10 10 10 10 10 10 10 10 10 10 10 9 9 10 10 10 10 10 10 10 10 11
16 15 14 14 13 12 12 12 12 12 11 11 11 11 10 10 10 9 9 9 9 9 9 9 9 9 9 9 9 9 9 9 9 8 9 9 9 9 9 9 9 9 10
15 14 14 13 12 12 11 11 11 11 10 10 10 10 10 9 9 8 8 8 8 8 7 7 7 7 7 7 7 7 7 7 7 7 7 8 8 8 8 8 8 8 8
15 14 13 12 11 11 10 10 10 10 10 10 9 9 9 9 8 8 7 7 7 7 6 6 6 5 5 5 5 5 5 5 5 5 6 6 6 7 7 7 7 7 7
14 13 12 11 11 10 10 10 10 9 9 9 9 8 8 8 7 7 6 6 6 6 5 5 4 4 4 4 4 4 4 4 4 4 4 4 4 5 5 5 6 6 6
13 12 11 11 10 10 10 9 9 9 8 8 8 7 7 7 6 6 5 5 5 5 4 4 4 3 3 3 3 2 2 2 2 2 3 3 3 3 4 4 4 4 5
12 11 11 10 10 9 9 9 8 8 8 7 7 6 6 5 5 4 4 4 4 4 3 3 3 2 2 2 2 2 2 2 2 2 2 2 2 2 2 2 3 3 3
11 11 10 9 9 8 8 8 7 7 7 6 5 5 4 4 4 4 4 3 3 2 2 2 1 1 1 0 1 1 0 1 1 1 1 1 1 1 1 1 1 1 1
11 10 9 8 8 8 7 7 6 6 5 5 4 4 4 3 3 3 2 2 1 1 1 0 -0 -0 -1 -0 -0 -1 -1 -1 -0 -0 0 0 0 -0 0 1 1 0 -0
10 9 8 7 7 7 6 6 5 4 4 3 3 3 3 2 2 1 1 0 -0 -1 -1 -1 -1 -1 -1 -2 -2 -2 -2 -2 -2 -2 -1 -1 -1 -1 -0 0 0 0 -0
8 7 7 7 6 5 4 4 3 3 3 2 2 2 2 1 1 0 -0 -1 -1 -2 -2 -2 -2 -2 -3 -3 -3 -3 -3 -3 -3 -3 -3 -3 -3 -2 -3 -3 -2 -1 0
7 7 6 5 4 4 3 2 2 2 2 2 1 1 0 -0 -1 -1 -2 -2 -2 -3 -3 -3 -3 -4 -4 -4 -4 -4 -5 -5 -5 -5 -5 -4 -4 -4 -4 -4 -4 -3 -1
6 5 5 4 4 3 2 2 2 1 1 1 0 -0 -1 -2 -2 -2 -3 -3 -3 -3 -4 -4 -4 -5 -5 -5 -5 -5 -6 -5 -5 -5 -5 -5 -5 -5 -5 -5 -4 -3 -2
6 5 4 3 3 2 1 1 1 0 -0 -0 -1 -1 -2 -3 -3 -3 -4 -4 -4 -4 -4 -5 -5 -6 -6 -6 -6 -6 -6 -6 -6 -6 -6 -6 -6 -6 -5 -4 -3 -2 -2
4 4 3 2 1 1 1 0 -0 -1 -1 -1 -2 -2 -3 -3 -4 -4 -4 -4 -5 -5 -6 -6 -7 -7 -7 -7 -7 -7 -6 -6 -6 -6 -7 -7 -6 -6 -5 -4 -3 -3 -2
3 2 1 0 0 -0 -0 -1 -1 -1 -2 -2 -2 -3 -3 -4 -4 -5 -5 -5 -6 -7 -8 -8 -8 -8 -8 -7 -7 -7 -7 -7 -7 -7 -7 -7 -7 -6 -5 -5 -4 -3 -3
1 0 -0 -0 -0 -1 -1 -1 -2 -2 -2 -3 -3 -4 -4 -4 -5 -5 -6 -6 -7 -8 -9 -8 -8 -8 -8 -8 -8 -7 -7 -7 -8 -8 -8 -7 -7 -7 -6 -5 -5 -4 -4
-1 -1 -1 -1 -1 -1 -1 -2 -3 -3 -3 -3 -3 -4 -5 -5 -6 -6 -6 -7 -8 -9 -9 -9 -9 -8 -8 -8 -8 -8 -8 -8 -8 -8 -8 -8 -8 -8 -7 -7 -6 -5 -5
-1 -1 -1 -1 -1 -2 -2 -2 -3 -3 -4 -4 -4 -5 -6 -7 -7 -7 -7 -7 -8 -9 -9 -9 -9 -9 -9 -9 -8 -8 -8 -8 -9 -9 -9 -9 -9 -9 -8 -8 -7 -6 -5
Wind_Speed
5 8 9 9 9 10 10 9 7 3 3 4 4 5 7 6 6 7 7 8 9 10 9 11 10 9 11 13 12 11 11 11 6 6 9 11 14 18 15 12 14 16 16
8 10 10 10 10 10 10 10 10 8 3 2 3 2 2 3 4 4 5 7 8 8 10 12 12 11 12 13 13 11 10 10 7 7 7 7 8 11 13 15 16 17 14
8 9 10 10 11 12 11 10 11 11 10 6 3 4 4 3 3 3 4 6 6 7 10 12 13 12 12 13 14 13 14 15 11 12 12 10 9 5 5 8 12 13 14
7 7 8 9 10 10 9 11 11 12 12 10 9 8 6 4 4 4 4 7 7 7 7 9 10 11 10 12 14 13 14 15 15 12 14 15 10 10 8 7 8 11 14
7 6 7 7 8 8 9 10 11 13 12 12 11 10 8 5 4 5 8 8 8 8 9 9 8 9 8 10 12 13 14 14 15 14 12 14 15 17 15 18 13 9 11
7 5 5 6 8 8 9 10 11 12 11 12 11 11 10 9 9 9 9 8 6 7 11 11 10 9 9 10 11 11 13 14 15 15 14 13 11 11 14 17 17 18 14
7 6 6 6 7 8 8 8 10 11 10 11 11 10 10 9 9 8 7 7 6 6 10 10 10 10 10 10 10 10 11 11 13 14 14 14 15 14 16 18 19 19 15
8 7 6 5 4 7 7 8 9 9 9 9 9 9 8 7 6 7 7 7 7 7 10 11 11 11 12 12 11 9 10 10 11 13 13 12 13 13 14 17 19 21 18
9 8 7 5 4 6 6 7 8 9 9 9 9 9 9 8 8 8 8 7 8 9 12 12 12 12 12 12 11 9 11 11 10 11 12 11 10 10 11 12 14 17 22
8 8 6 4 4 5 6 7 8 8 8 9 8 7 8 8 8 8 9 10 10 10 12 13 13 14 14 14 13 12 12 12 10 10 12 11 11 10 9 9 10 11 16
9 7 5 4 6 7 7 8 8 8 8 8 7 7 7 7 8 8 8 9 9 10 11 12 13 13 14 14 14 14 13 13 13 12 13 15 14 12 11 10 10 10 11
7 6 5 6 7 7 7 7 7 7 6 6 7 7 7 8 8 9 9 10 10 10 11 11 12 13 13 13 14 14 14 14 14 13 13 15 14 15 13 12 13 12 12
7 6 7 8 7 7 6 6 6 6 6 6 7 7 8 9 9 10 11 11 12 13 13 13 14 14 14 14 13 12 14 13 12 12 13 14 15 15 14 15 15 14 14
8 8 8 7 6 6 5 5 6 6 7 7 7 8 8 8 9 10 11 12 13 14 15 16 15 15 16 15 13 16 15 12 11 11 11 12 13 16 17 16 15 16 17
8 8 8 6 5 5 4 5 6 6 7 6 7 7 7 8 9 11 11 12 13 15 14 16 16 16 16 15 21 19 16 13 13 12 11 12 15 18 17 18 18 18 17
9 8 7 6 4 4 4 4 5 6 6 6 6 7 8 10 11 11 12 13 13 14 15 15 16 17 17 26 29 23 15 14 16 18 17 16 14 17 27 29 28 25 21
8 7 6 4 3 2 3 3 4 5 6 6 7 8 9 10 11 13 13 13 13 14 14 15 15 17 20 28 28 27 19 16 16 18 19 20 20 24 20 26 29 26 28
7 6 4 3 2 2 3 3 4 5 6 6 7 8 10 11 11 12 13 12 12 13 14 15 15 16 20 27 28 31 19 16 16 17 18 19 19 20 24 23 24 24 23
6 5 4 3 3 3 3 4 5 6 6 7 8 9 10 11 12 13 12 12 12 14 13 15 15 16 18 25 29 29 15 15 16 17 17 20 19 29 33 25 25 28 27
5 4 3 4 4 4 4 5 6 7 7 8 8 8 9 10 12 12 11 11 12 13 15 15 14 15 15 24 29 29 14 15 15 14 15 24 27 32 35 25 24 27 26
5 4 4 4 4 4 5 6 6 7 7 8 8 8 9 10 11 9 10 13 14 14 14 15 14 13 16 22 27 29 16 16 17 16 16 18 32 36 37 33 23 27 28
5 4 4 3 4 5 5 6 6 7 7 8 8 9 9 10 12 11 11 12 12 13 13 14 14 11 12 19 23 29 27 26 19 17 16 20 35 37 36 28 27 34 30
4 3 3 3 4 5 4 5 7 8 8 8 9 9 10 8 9 10 12 12 10 11 12 13 14 14 12 15 25 28 30 30 20 18 27 32 34 31 24 26 32 28 18
3 2 2 3 4 5 5 6 8 8 8 9 9 8 9 9 9 9 9 10 11 12 13 14 14 15 14 12 13 15 18 23 20 18 23 28 27 24 24 24 20 16 16
2 1 1 3 5 6 7 7 8 8 8 9 8 8 8 9 10 10 9 12 10 13 17 14 14 15 16 19 30 24 18 18 20 22 15 15 16 16 16 17 17 16 16
1 1 3 4 5 6 8 8 8 8 8 9 9 8 8 8 9 11 14 18 18 23 24 22 21 18 22 30 31 31 30 30 30 21 15 16 16 17 18 19 19 18 17
Wind_Direction
26 20 15 9 16 19 21 20 19 334 202 183 197 211 227 230 231 233 235 236 235 231 228 241 243 232 237 243 235 235 240 247 232 247 265 262 255 256 256 250 252 253 248
29 19 14 16 23 24 21 24 23 18 17 194 181 182 211 240 246 259 259 247 241 236 238 240 246 241 242 245 242 232 241 250 220 228 251 271 268 254 248 246 247 250 250
45 23 16 18 23 27 22 31 29 30 27 33 76 68 54 22 8 333 303 291 279 268 259 256 254 251 243 248 247 237 238 252 246 231 239 255 262 284 260 240 244 246 247
57 40 27 24 24 19 21 32 35 38 34 39 54 59 55 30 353 337 335 330 324 314 302 293 281 273 262 255 255 248 243 246 254 248 237 240 246 256 275 256 236 235 244
86 64 44 37 29 24 28 32 39 40 35 41 49 56 52 35 11 9 9 3 354 355 354 345 335 315 296 279 272 267 258 252 251 253 250 247 247 246 256 272 272 254 241
117 96 65 50 38 31 33 34 41 38 31 35 39 44 43 33 28 18 12 4 355 355 1 355 352 344 336 322 308 294 282 273 267 263 259 254 249 246 250 261 264 268 265
144 128 101 71 53 44 39 40 47 41 32 36 37 36 38 38 34 20 10 6 356 349 350 350 346 345 339 333 328 319 307 295 287 283 279 273 268 262 259 262 267 266 265
162 155 146 118 78 59 51 50 53 46 36 36 35 34 35 35 28 19 11 3 352 339 341 342 340 338 336 335 330 323 315 309 302 297 293 291 287 282 277 273 275 276 272
175 167 157 136 102 69 58 60 62 50 37 33 32 31 27 27 20 13 8 360 351 346 343 339 337 335 333 331 329 323 318 314 308 305 300 297 295 291 288 286 283 284 287
181 173 163 147 100 77 69 64 63 54 39 34 32 31 23 20 14 10 3 353 345 341 338 338 336 334 333 331 330 325 321 322 320 319 316 312 308 302 296 292 291 287 287
182 176 167 127 93 80 70 65 57 48 36 27 24 23 15 12 9 3 352 343 337 336 336 336 334 333 331 331 328 324 327 327 324 323 321 318 316 312 309 304 297 292 290
170 154 129 103 93 85 75 65 51 41 28 19 20 18 15 13 8 359 350 345 342 339 337 336 333 331 329 327 322 322 329 323 321 321 320 319 320 314 313 310 305 300 294
139 117 102 99 97 90 78 63 44 28 17 16 18 20 18 11 3 355 350 348 346 343 343 340 335 332 329 324 316 320 320 313 311 312 314 316 317 315 313 310 306 303 301
134 118 107 100 93 83 72 57 34 18 15 16 21 22 10 0 354 350 348 346 344 342 341 337 334 331 329 323 324 326 319 311 307 306 307 311 313 312 311 311 309 309 307
128 121 117 107 93 79 63 46 27 15 13 16 22 11 357 354 352 349 345 342 340 338 334 333 331 330 327 326 326 324 324 320 318 314 308 307 306 304 312 315 312 310 306
130 125 120 114 101 85 63 40 21 7 10 19 13 360 358 355 350 344 340 337 334 331 330 328 326 325 325 322 325 329 329 329 326 323 321 316 310 314 318 313 309 306 303
135 128 122 118 113 95 62 32 9 6 14 16 4 359 356 350 343 339 336 331 329 327 325 323 322 320 319 322 327 331 331 325 322 321 319 317 317 320 314 312 311 306 300
127 128 136 139 114 65 31 13 14 16 13 6 358 355 350 343 337 333 329 325 324 324 321 320 318 317 318 325 327 327 327 320 315 314 311 311 313 315 316 313 311 307 302
139 149 156 138 93 53 24 25 20 12 6 357 350 346 342 336 332 327 322 320 322 320 316 317 315 314 316 321 324 325 318 314 311 309 310 313 312 312 315 314 308 306 302
145 142 119 89 66 34 30 34 15 3 352 342 335 332 330 325 321 316 314 316 317 315 315 314 312 309 310 316 323 323 315 314 313 312 311 312 313 312 313 311 305 302 301
130 104 84 64 39 27 34 22 1 342 326 321 320 319 317 314 312 312 314 315 316 315 313 311 309 305 308 317 321 322 323 319 319 319 317 314 314 314 313 310 304 300 304
107 94 79 45 21 21 22 359 333 314 312 313 313 311 309 311 320 314 312 313 313 314 314 313 312 308 309 315 319 322 324 324 321 318 316 315 315 315 314 313 309 312 314
113 95 68 17 359 359 359 328 310 311 314 313 308 305 305 302 304 310 315 317 315 315 315 315 315 316 315 316 321 324 325 326 324 316 316 317 318 320 317 314 316 319 316
114 90 33 344 325 320 316 302 302 309 310 306 302 302 306 310 312 312 312 313 314 314 315 316 317 316 316 318 322 324 324 325 324 318 319 322 321 320 319 318 318 317 315
119 105 320 305 301 305 304 303 303 305 303 300 298 303 307 311 314 312 307 308 301 308 315 316 316 317 319 320 324 326 324 327 324 326 324 325 325 325 324 322 320 320 322
142 314 313 305 301 302 300 298 296 297 301 309 311 309 310 309 310 311 312 310 312 315 317 318 318 318 317 320 324 325 326 331 332 331 327 326 325 323 325 324 323 323 325
Height
1483 1482 1480 1479 1478 1477 1476 1475 1474 1474 1475 1477 1478 1480 1480 1481 1482 1482 1482 1481 1481 1479 1477 1475 1473 1472 1469 1467 1465 1463 1461 1459 1458 1456 1452 1449 1447 1444 1441 1440 1439 1437 1436
1483 1482 1481 1479 1478 1476 1475 1474 1473 1473 1473 1473 1475 1476 1478 1479 1479 1480 1479 1478 1477 1474 1472 1469 1467 1465 1462 1459 1457 1455 1453 1451 1452 1449 1445 1439 1436 1431 1431 1431 1429 1427 1426
1483 1482 1482 1480 1479 1477 1476 1475 1474 1473 1472 1472 1472 1473 1474 1475 1476 1476 1475 1473 1471 1469 1467 1464 1461 1458 1456 1453 1451 1449 1447 1444 1443 1441 1439 1434 1427 1424 1421 1421 1420 1419 1418
1485 1484 1483 1482 1480 1479 1478 1477 1476 1474 1473 1472 1472 1472 1472 1473 1473 1471 1470 1468 1466 1464 1461 1458 1455 1452 1449 1446 1444 1443 1440 1437 1433 1432 1429 1426 1422 1420 1413 1411 1410 1409 1407
1486 1485 1485 1484 1483 1482 1481 1480 1479 1477 1475 1474 1473 1472 1472 1471 1470 1469 1467 1465 1463 1460 1457 1453 1450 1447 1444 1441 1438 1436 1433 1430 1426 1423 1421 1417 1414 1411 1408 1402 1401 1399 1396
1486 1486 1486 1485 1484 1484 1483 1482 1481 1479 1478 1476 1475 1473 1472 1471 1469 1468 1466 1463 1461 1457 1454 1451 1447 1443 1440 1436 1433 1430 1427 1423 1420 1416 1413 1410 1406 1402 1400 1394 1390 1388 1385
1486 1486 1486 1486 1485 1485 1484 1483 1482 1480 1479 1478 1476 1474 1473 1471 1469 1467 1465 1461 1458 1454 1451 1447 1443 1440 1436 1432 1428 1424 1421 1417 1413 1409 1406 1402 1398 1395 1390 1385 1379 1375 1373
1484 1485 1486 1486 1485 1485 1484 1483 1482 1481 1480 1478 1477 1475 1473 1471 1469 1466 1463 1460 1456 1452 1448 1444 1440 1436 1431 1427 1423 1418 1414 1410 1406 1401 1398 1394 1390 1387 1383 1378 1372 1364 1359
1483 1484 1485 1485 1485 1485 1484 1484 1483 1482 1480 1478 1476 1474 1472 1470 1468 1465 1462 1458 1454 1449 1445 1440 1436 1431 1426 1421 1416 1411 1407 1402 1398 1394 1390 1386 1382 1378 1375 1371 1367 1362 1351
1481 1483 1484 1485 1485 1485 1484 1484 1483 1481 1480 1477 1475 1473 1471 1468 1465 1462 1458 1454 1450 1445 1440 1435 1430 1425 1420 1415 1410 1405 1400 1395 1390 1386 1382 1378 1374 1370 1366 1363 1358 1354 1349
1479 1481 1483 1484 1484 1484 1484 1483 1482 1480 1478 1476 1473 1471 1468 1465 1462 1458 1454 1449 1445 1440 1435 1430 1425 1420 1415 1410 1405 1400 1395 1389 1384 1379 1374 1369 1366 1361 1357 1353 1349 1345 1341
1479 1481 1483 1483 1483 1483 1482 1481 1480 1478 1476 1473 1471 1468 1464 1461 1457 1453 1449 1444 1440 1435 1430 1425 1420 1415 1410 1405 1400 1395 1390 1384 1378 1372 1367 1362 1357 1353 1348 1344 1339 1335 1330
1478 1480 1481 1481 1481 1481 1480 1479 1478 1476 1473 1471 1467 1464 1460 1456 1452 1448 1444 1440 1435 1430 1425 1419 1414 1409 1404 1400 1395 1390 1384 1379 1374 1368 1362 1356 1351 1345 1340 1336 1331 1326 1321
1477 1478 1479 1479 1479 1479 1479 1477 1475 1473 1471 1468 1464 1461 1457 1453 1449 1444 1440 1435 1430 1425 1419 1414 1409 1404 1399 1394 1389 1383 1377 1372 1367 1362 1356 1351 1345 1339 1333 1328 1322 1317 1312
1475 1476 1477 1477 1478 1478 1477 1475 1473 1470 1467 1464 1461 1457 1453 1449 1445 1440 1435 1431 1426 1420 1415 1409 1403 1399 1394 1389 1384 1377 1371 1365 1359 1353 1348 1343 1338 1333 1328 1322 1315 1309 1303
1473 1475 1475 1476 1476 1476 1475 1473 1470 1467 1464 1461 1457 1453 1449 1445 1441 1436 1431 1426 1421 1416 1410 1404 1399 1393 1388 1383 1378 1372 1365 1358 1352 1345 1339 1334 1329 1324 1319 1313 1307 1302 1296
1472 1473 1474 1475 1475 1474 1472 1470 1467 1464 1460 1457 1453 1449 1445 1441 1436 1432 1427 1422 1416 1411 1405 1400 1394 1388 1383 1378 1372 1366 1360 1353 1346 1339 1332 1325 1320 1315 1308 1300 1294 1289 1286
1472 1473 1474 1474 1473 1471 1468 1466 1463 1460 1457 1453 1449 1445 1441 1436 1432 1428 1423 1418 1412 1407 1401 1395 1389 1384 1378 1373 1367 1360 1353 1346 1339 1333 1326 1319 1311 1306 1300 1292 1283 1275 1270
1472 1473 1473 1471 1469 1467 1464 1462 1460 1456 1453 1449 1445 1441 1437 1432 1428 1423 1419 1413 1407 1401 1396 1390 1384 1378 1372 1367 1361 1354 1346 1338 1332 1326 1320 1313 1304 1297 1292 1286 1276 1266 1258
1470 1470 1469 1467 1465 1463 1461 1459 1455 1452 1449 1445 1441 1438 1434 1429 1425 1420 1414 1409 1403 1396 1390 1384 1379 1373 1367 1361 1355 1348 1341 1333 1326 1319 1312 1305 1298 1290 1284 1278 1270 1261 1251
1467 1467 1466 1464 1462 1460 1457 1455 1452 1449 1445 1441 1438 1434 1430 1426 1420 1415 1410 1404 1397 1390 1384 1378 1372 1367 1361 1354 1349 1343 1337 1329 1320 1312 1304 1296 1289 1281 1275 1270 1263 1255 1246
1464 1463 1462 1461 1459 1457 1455 1452 1449 1445 1441 1437 1433 1430 1426 1421 1416 1410 1404 1398 1392 1385 1378 1372 1365 1359 1354 1349 1343 1338 1332 1325 1316 1307 1299 1290 1282 1275 1267 1260 1254 1246 1238
1461 1460 1459 1458 1456 1454 1451 1448 1445 1441 1437 1433 1429 1425 1420 1416 1411 1405 1399 1392 1386 1380 1374 1367 1360 1353 1347 1342 1337 1331 1325 1318 1310 1302 1294 1285 1276 1268 1259 1253 1247 1239 1230
1458 1457 1456 1454 1453 1451 1448 1445 1441 1437 1433 1429 1424 1419 1414 1409 1405 1400 1394 1388 1381 1376 1370 1363 1357 1349 1343 1337 1331 1325 1318 1310 1303 1294 1286 1278 1270 1262 1255 1247 1240 1232 1225
1454 1454 1453 1451 1449 1447 1444 1441 1437 1433 1428 1423 1419 1414 1409 1404 1399 1394 1389 1383 1377 1374 1368 1361 1354 1347 1339 1334 1329 1323 1314 1307 1299 1290 1280 1272 1263 1255 1248 1240 1234 1226 1218
1452 1451 1449 1447 1445 1442 1440 1437 1433 1428 1423 1418 1413 1409 1404 1399 1394 1388 1381 1375 1372 1367 1362 1357 1351 1344 1338 1331 1324 1318 1311 1303 1296 1287 1278 1270 1262 1254 1246 1237 1229 1221 1214